Weather History for Scappoose, OR

Change the Weather History Date:

Wednesday, November 20, 2013

  Actual Average Record
Temperature  
Mean Temperature 37 °F -  
Max Temperature 46 °F - 64 °F (2002)
Min Temperature 29 °F - 22 °F (2011)
Degree Days  
Heating Degree Days 27    
Month to date heating degree days 362  
Since 1 July heating degree days 932  
Cooling Degree Days 0    
Month to date cooling degree days 0  
Year to date cooling degree days 396  
Moisture  
Dew Point 26 °F    
Average Humidity 71    
Maximum Humidity 92    
Minimum Humidity 49    
Precipitation  
Precipitation 0.00 in - 0.42 in (2008)
Month to date precipitation 3.05  
Year to date precipitation 25.56  
Sea Level Pressure  
Sea Level Pressure 30.24 in    
Wind  
Wind Speed 7 mph (NNW)    
Max Wind Speed 17 mph    
Max Gust Speed 23 mph    
Visibility 10 miles    
Events      
T = Trace of Precipitation, MM = Missing Value Source: NWS Daily Summary

Daily Weather History Graph

Daily Weather History Graph

Search for Another Location

Airport:

Trip Planner

Search our weather history database for the weather conditions in past years. The results will help you decide how hot, cold, wet, or windy it might be!

Date:

Astronomy

Nov. 20, 2013 Rise Set
Actual Time 7:18 AM PST 4:35 PM PST
Civil Twilight 6:45 AM PST 5:08 PM PST
Nautical Twilight 6:09 AM PST 5:44 PM PST
Astronomical Twilight 5:33 AM PST 6:19 PM PST
Moon 7:23 PM PST (11/20) 9:48 AM PST (11/20)
Length of Visible Light 10h 22m
Length of Day
9h 16m
Waning Gibbous, 91% of the Moon is Illuminated
Nov 20
Waning Gibbous
Nov 25
Last Quarter
Dec 2
New
Dec 9
First Quarter
Dec 17
Full

Hourly Weather History & Observations

Time (PST) Temp. Windchill Dew Point Humidity Pressure Visibility Wind Dir Wind Speed Gust Speed Precip Events Conditions
12:53 AM 30.9 °F - 28.0 °F 89% 30.06 in 10.0 mi Calm Calm - N/A   Clear
1:53 AM 28.9 °F - 26.1 °F 89% 30.07 in 10.0 mi Calm Calm - N/A   Mostly Cloudy
2:09 AM 30.9 °F 27.5 °F 28.0 °F 89% 30.08 in 10.0 mi NW 3.5 mph - N/A   Scattered Clouds
2:16 AM 30.9 °F 27.5 °F 28.0 °F 89% 30.08 in 10.0 mi North 3.5 mph - N/A   Mostly Cloudy
2:53 AM 30.9 °F 27.5 °F 27.0 °F 85% 30.10 in 9.0 mi WNW 3.5 mph - N/A   Scattered Clouds
3:53 AM 34.0 °F 28.0 °F 28.9 °F 82% 30.11 in 10.0 mi NNW 6.9 mph - N/A   Clear
4:53 AM 35.1 °F 27.9 °F 27.0 °F 72% 30.13 in 10.0 mi NNW 9.2 mph - N/A   Clear
5:53 AM 36.0 °F 28.5 °F 25.0 °F 64% 30.15 in 10.0 mi NW 10.4 mph 18.4 mph N/A   Clear
6:53 AM 36.0 °F 28.0 °F 24.1 °F 62% 30.18 in 10.0 mi NNW 11.5 mph 20.7 mph N/A   Clear
7:53 AM 35.1 °F 27.4 °F 24.1 °F 64% 30.20 in 10.0 mi North 10.4 mph 21.9 mph N/A   Clear
8:53 AM 37.9 °F 30.9 °F 26.1 °F 62% 30.24 in 10.0 mi NNW 10.4 mph - N/A   Clear
9:53 AM 39.9 °F 32.5 °F 27.0 °F 60% 30.26 in 10.0 mi NNW 12.7 mph - N/A   Clear
10:53 AM 43.0 °F 37.2 °F 27.0 °F 53% 30.27 in 10.0 mi NNW 10.4 mph - N/A   Clear
11:53 AM 44.1 °F 38.6 °F 28.0 °F 53% 30.26 in 10.0 mi North 10.4 mph - N/A   Clear
12:53 PM 46.0 °F 41.4 °F 28.9 °F 51% 30.26 in 10.0 mi NNW 9.2 mph - N/A   Clear
1:53 PM 44.1 °F 38.6 °F 28.9 °F 55% 30.26 in 10.0 mi NNW 10.4 mph - N/A   Clear
2:53 PM 44.1 °F 39.0 °F 28.9 °F 55% 30.28 in 10.0 mi NNW 9.2 mph - N/A   Clear
3:53 PM 42.1 °F 36.6 °F 28.0 °F 58% 30.30 in 10.0 mi NNW 9.2 mph - N/A   Clear
4:53 PM 39.0 °F 34.8 °F 27.0 °F 62% 30.31 in 10.0 mi NNW 5.8 mph - N/A   Clear
5:53 PM 39.0 °F 34.8 °F 25.0 °F 57% 30.33 in 10.0 mi NNW 5.8 mph - N/A   Clear
6:53 PM 37.9 °F 33.5 °F 24.1 °F 57% 30.35 in 10.0 mi NNW 5.8 mph - N/A   Clear
7:53 PM 37.0 °F 33.3 °F 24.1 °F 59% 30.37 in 10.0 mi NNW 4.6 mph - N/A   Clear
8:53 PM 36.0 °F 31.1 °F 24.1 °F 62% 30.38 in 10.0 mi NNW 5.8 mph - N/A   Clear
9:53 PM 34.0 °F 29.8 °F 24.1 °F 67% 30.40 in 10.0 mi NNW 4.6 mph - N/A   Clear
10:53 PM 34.0 °F 28.8 °F 24.1 °F 67% 30.43 in 10.0 mi North 5.8 mph - N/A   Clear
11:53 PM 34.0 °F 28.0 °F 24.1 °F 67% 30.44 in 10.0 mi NNW 6.9 mph - N/A   Clear